When you browse on this site, cookies collect data to enhance your experience and personalize the content and advertising you see.
Visit our Privacy Policy to learn more. By continuing to use the site, you agree to this use of cookies and data.

Stündliche Wetter Bolshie Mihalki

Heute, 23 September, Mittwoch

Zeit Temperatur Niederschläge Wind Luftdruck Luftfeuchtigkeit
00:00 +15°C° 0 mm 2 m/S 746 mmHg 77%
01:00 +14°C° 0 mm 2 m/S 746 mmHg 79%
02:00 +14°C° 0 mm 2 m/S 746 mmHg 81%
03:00 +14°C° 0 mm 2 m/S 745 mmHg 82%
04:00 +13°C° 0 mm 2 m/S 745 mmHg 83%
05:00 +13°C° 0 mm 2 m/S 745 mmHg 83%
06:00 +13°C° 0 mm 3 m/S 744 mmHg 80%
07:00 +14°C° 0 mm 3 m/S 744 mmHg 78%
08:00 +16°C° 0 mm 3 m/S 744 mmHg 75%
09:00 +18°C° 0 mm 3 m/S 744 mmHg 68%
10:00 +20°C° 0 mm 3 m/S 744 mmHg 62%
11:00 +22°C° 0 mm 3 m/S 744 mmHg 56%
12:00 +22°C° 0 mm 4 m/S 744 mmHg 53%
13:00 +23°C° 0 mm 4 m/S 743 mmHg 50%
14:00 +25°C° 0 mm 4 m/S 743 mmHg 48%
15:00 +23°C° 0 mm 4 m/S 743 mmHg 51%
16:00 +23°C° 0 mm 4 m/S 742 mmHg 55%
17:00 +22°C° 0 mm 4 m/S 742 mmHg 58%
18:00 +20°C° 0 mm 4 m/S 742 mmHg 62%
19:00 +19°C° 0 mm 4 m/S 742 mmHg 67%
20:00 +17°C° 0 mm 4 m/S 742 mmHg 71%
21:00 +17°C° 0 mm 3 m/S 742 mmHg 73%
22:00 +16°C° 0 mm 3 m/S 742 mmHg 75%
23:00 +16°C° 0 mm 3 m/S 742 mmHg 77%

Morgen, 24 September, Donnerstag

Zeit Temperatur Niederschläge Wind Luftdruck Luftfeuchtigkeit
00:00 +16°C° 0 mm 3 m/S 742 mmHg 79%
01:00 +14°C° 0 mm 3 m/S 742 mmHg 80%
02:00 +14°C° 0 mm 3 m/S 742 mmHg 82%
03:00 +14°C° 0 mm 3 m/S 742 mmHg 83%
04:00 +13°C° 0 mm 3 m/S 742 mmHg 85%
05:00 +13°C° 0 mm 3 m/S 741 mmHg 86%
06:00 +14°C° 0 mm 3 m/S 742 mmHg 82%
07:00 +15°C° 0 mm 4 m/S 742 mmHg 77%
08:00 +15°C° 0 mm 4 m/S 742 mmHg 73%
09:00 +18°C° 0 mm 4 m/S 742 mmHg 67%
10:00 +20°C° 0 mm 4 m/S 742 mmHg 60%
11:00 +22°C° 0 mm 4 m/S 742 mmHg 54%
12:00 +23°C° 0 mm 4 m/S 742 mmHg 52%
13:00 +25°C° 0 mm 5 m/S 742 mmHg 50%
14:00 +26°C° 0 mm 5 m/S 742 mmHg 48%
15:00 +25°C° 0 mm 4 m/S 742 mmHg 52%
16:00 +25°C° 0 mm 3 m/S 741 mmHg 55%
17:00 +24°C° 0 mm 3 m/S 741 mmHg 59%
18:00 +21°C° 0.1 mm 3 m/S 741 mmHg 64%
19:00 +20°C° 0.1 mm 3 m/S 741 mmHg 69%
20:00 +18°C° 0.1 mm 3 m/S 741 mmHg 75%
21:00 +18°C° 0.1 mm 3 m/S 742 mmHg 78%
22:00 +17°C° 0.1 mm 3 m/S 742 mmHg 81%
23:00 +17°C° 0.1 mm 3 m/S 742 mmHg 84%

übermorgen, 25 September, Freitag

Zeit Temperatur Niederschläge Wind Luftdruck Luftfeuchtigkeit
00:00 +16°C° 0 mm 3 m/S 742 mmHg 85%
01:00 +16°C° 0 mm 3 m/S 742 mmHg 86%
02:00 +16°C° 0 mm 2 m/S 741 mmHg 88%
03:00 +16°C° 0 mm 2 m/S 741 mmHg 89%
04:00 +16°C° 0 mm 3 m/S 741 mmHg 90%
05:00 +14°C° 0 mm 3 m/S 741 mmHg 92%
06:00 +16°C° 0 mm 3 m/S 741 mmHg 90%
07:00 +17°C° 0 mm 4 m/S 740 mmHg 87%
08:00 +17°C° 0 mm 4 m/S 740 mmHg 85%
09:00 +19°C° 0 mm 4 m/S 740 mmHg 79%
10:00 +20°C° 0 mm 5 m/S 740 mmHg 72%
11:00 +22°C° 0 mm 5 m/S 740 mmHg 65%
12:00 +23°C° 0 mm 6 m/S 739 mmHg 61%
13:00 +23°C° 0 mm 6 m/S 739 mmHg 56%
14:00 +24°C° 0 mm 7 m/S 739 mmHg 51%
15:00 +23°C° 0 mm 6 m/S 738 mmHg 54%
16:00 +23°C° 0 mm 5 m/S 738 mmHg 58%
17:00 +22°C° 0 mm 4 m/S 737 mmHg 61%
18:00 +21°C° 0 mm 5 m/S 737 mmHg 66%
19:00 +20°C° 0 mm 5 m/S 737 mmHg 71%
20:00 +19°C° 0 mm 5 m/S 737 mmHg 75%
21:00 +19°C° 0 mm 5 m/S 737 mmHg 75%
22:00 +19°C° 0 mm 5 m/S 737 mmHg 74%
23:00 +17°C° 0 mm 5 m/S 737 mmHg 73%

26 September, Samstag

Zeit Temperatur Niederschläge Wind Luftdruck Luftfeuchtigkeit
00:00 +17°C° 0 mm 5 m/S 737 mmHg 72%
01:00 +16°C° 0 mm 5 m/S 736 mmHg 71%
02:00 +16°C° 0 mm 5 m/S 736 mmHg 69%
03:00 +16°C° 0 mm 5 m/S 736 mmHg 68%
04:00 +15°C° 0 mm 6 m/S 736 mmHg 67%
05:00 +15°C° 0 mm 6 m/S 736 mmHg 67%
06:00 +15°C° 0 mm 6 m/S 736 mmHg 68%
07:00 +16°C° 0 mm 6 m/S 735 mmHg 70%
08:00 +16°C° 0 mm 6 m/S 735 mmHg 71%
09:00 +18°C° 0 mm 7 m/S 736 mmHg 67%
10:00 +21°C° 0 mm 8 m/S 736 mmHg 64%
11:00 +22°C° 0 mm 8 m/S 736 mmHg 60%
12:00 +23°C° 0 mm 8 m/S 736 mmHg 57%
13:00 +24°C° 0 mm 9 m/S 736 mmHg 54%
14:00 +26°C° 0 mm 9 m/S 735 mmHg 52%
15:00 +24°C° 0 mm 8 m/S 735 mmHg 53%
16:00 +24°C° 0 mm 7 m/S 735 mmHg 55%
17:00 +23°C° 0 mm 6 m/S 735 mmHg 57%
18:00 +23°C° 0 mm 7 m/S 735 mmHg 56%
19:00 +22°C° 0 mm 7 m/S 735 mmHg 55%
20:00 +22°C° 0 mm 8 m/S 735 mmHg 54%
21:00 +21°C° 0 mm 8 m/S 735 mmHg 53%
22:00 +21°C° 0 mm 8 m/S 735 mmHg 51%
23:00 +20°C° 0 mm 8 m/S 735 mmHg 50%

27 September, Sonntag

Zeit Temperatur Niederschläge Wind Luftdruck Luftfeuchtigkeit
00:00 +20°C° 0 mm 8 m/S 735 mmHg 51%
01:00 +18°C° 0 mm 8 m/S 734 mmHg 53%
02:00 +18°C° 0 mm 8 m/S 734 mmHg 55%
03:00 +18°C° 0 mm 8 m/S 734 mmHg 56%
04:00 +18°C° 0 mm 8 m/S 733 mmHg 57%
05:00 +18°C° 0 mm 8 m/S 733 mmHg 58%
06:00 +20°C° 0 mm 8 m/S 733 mmHg 58%
07:00 +20°C° 0 mm 8 m/S 734 mmHg 59%
08:00 +20°C° 0 mm 8 m/S 734 mmHg 59%
09:00 +20°C° 0.1 mm 8 m/S 734 mmHg 61%
10:00 +18°C° 0.1 mm 8 m/S 734 mmHg 62%
11:00 +18°C° 0.1 mm 8 m/S 734 mmHg 63%
12:00 +17°C° 0.6 mm 8 m/S 734 mmHg 69%
13:00 +17°C° 0.6 mm 8 m/S 734 mmHg 75%
14:00 +16°C° 0.6 mm 7 m/S 734 mmHg 82%
15:00 +16°C° 0.7 mm 8 m/S 734 mmHg 82%
16:00 +16°C° 0.7 mm 8 m/S 734 mmHg 83%
17:00 +16°C° 0.7 mm 8 m/S 734 mmHg 84%
18:00 +16°C° 0.4 mm 7 m/S 735 mmHg 86%
19:00 +15°C° 0.4 mm 5 m/S 735 mmHg 87%
20:00 +14°C° 0.4 mm 4 m/S 735 mmHg 89%
21:00 +14°C° 0.3 mm 4 m/S 736 mmHg 90%
22:00 +13°C° 0.3 mm 4 m/S 737 mmHg 91%
23:00 +13°C° 0.3 mm 4 m/S 737 mmHg 91%

28 September, Montag

Zeit Temperatur Niederschläge Wind Luftdruck Luftfeuchtigkeit
00:00 +12°C° 0.3 mm 4 m/S 738 mmHg 91%
01:00 +12°C° 0.3 mm 4 m/S 738 mmHg 91%
02:00 +12°C° 0.3 mm 4 m/S 739 mmHg 91%
03:00 +12°C° 0.3 mm 4 m/S 739 mmHg 92%
04:00 +12°C° 0.3 mm 3 m/S 740 mmHg 92%
05:00 +12°C° 0.3 mm 3 m/S 740 mmHg 93%
06:00 +11°C° 0.2 mm 3 m/S 741 mmHg 92%
07:00 +11°C° 0.2 mm 3 m/S 741 mmHg 91%
08:00 +11°C° 0.2 mm 3 m/S 742 mmHg 90%
09:00 +11°C° 0.1 mm 3 m/S 742 mmHg 84%
10:00 +12°C° 0.1 mm 3 m/S 742 mmHg 79%
11:00 +12°C° 0.1 mm 4 m/S 743 mmHg 73%
12:00 +13°C° 0 mm 3 m/S 743 mmHg 67%
13:00 +14°C° 0 mm 3 m/S 743 mmHg 60%
14:00 +16°C° 0 mm 3 m/S 743 mmHg 54%
15:00 +16°C° 0 mm 3 m/S 743 mmHg 56%
16:00 +15°C° 0 mm 2 m/S 743 mmHg 58%
17:00 +15°C° 0 mm 1 m/S 743 mmHg 61%
18:00 +14°C° 0 mm 1 m/S 744 mmHg 63%
19:00 +13°C° 0 mm 1 m/S 744 mmHg 66%
20:00 +12°C° 0 mm 1 m/S 744 mmHg 69%
21:00 +11°C° 0 mm 1 m/S 744 mmHg 72%
22:00 +10°C° 0 mm 2 m/S 744 mmHg 76%
23:00 +9°C° 0 mm 2 m/S 744 mmHg 80%
Mehr zeigen